<?xml version="1.0"?>
<gpx xmlns="http://www.topografix.com/GPX/1/1" xmlns:xsi="http://www.w3.org/2001/XMLSchema-instance" version="1.1" creator="GPX RubyGem 1.0.0 -- http://dougfales.github.io/gpx/" xsi:schemaLocation="http://www.topografix.com/GPX/1/1 http://www.topografix.com/GPX/1/1/gpx.xsd">
  <metadata>
    <name/>
    <time>2026-05-08T01:45:41+00:00</time>
    <bound minlat="90.0" minlon="180.0" maxlat="-90.0" maxlon="-180.0"/>
  </metadata>
  <trk>
    <name/>
    <trkseg>
      <trkpt lat="45.66822" lon="7.695855">
        <time>1970-01-01T00:00:00+00:00</time>
        <ele>454.0</ele>
      </trkpt>
      <trkpt lat="45.668681" lon="7.696849">
        <time>1970-01-01T00:00:00+00:00</time>
        <ele>468.0</ele>
      </trkpt>
      <trkpt lat="45.668862" lon="7.69684">
        <time>1970-01-01T00:00:00+00:00</time>
        <ele>466.0</ele>
      </trkpt>
      <trkpt lat="45.668939" lon="7.696786">
        <time>1970-01-01T00:00:00+00:00</time>
        <ele>465.0</ele>
      </trkpt>
      <trkpt lat="45.668994" lon="7.696705">
        <time>1970-01-01T00:00:00+00:00</time>
        <ele>465.0</ele>
      </trkpt>
      <trkpt lat="45.669196" lon="7.696472">
        <time>1970-01-01T00:00:00+00:00</time>
        <ele>467.0</ele>
      </trkpt>
      <trkpt lat="45.669283" lon="7.696416">
        <time>1970-01-01T00:00:00+00:00</time>
        <ele>469.0</ele>
      </trkpt>
      <trkpt lat="45.669342" lon="7.696316">
        <time>1970-01-01T00:00:00+00:00</time>
        <ele>473.0</ele>
      </trkpt>
      <trkpt lat="45.669381" lon="7.696203">
        <time>1970-01-01T00:00:00+00:00</time>
        <ele>475.0</ele>
      </trkpt>
      <trkpt lat="45.669381" lon="7.696131">
        <time>1970-01-01T00:00:00+00:00</time>
        <ele>476.0</ele>
      </trkpt>
      <trkpt lat="45.669362" lon="7.696052">
        <time>1970-01-01T00:00:00+00:00</time>
        <ele>475.0</ele>
      </trkpt>
      <trkpt lat="45.669401" lon="7.695935">
        <time>1970-01-01T00:00:00+00:00</time>
        <ele>477.0</ele>
      </trkpt>
      <trkpt lat="45.669406" lon="7.695774">
        <time>1970-01-01T00:00:00+00:00</time>
        <ele>478.0</ele>
      </trkpt>
      <trkpt lat="45.669451" lon="7.69547">
        <time>1970-01-01T00:00:00+00:00</time>
        <ele>474.0</ele>
      </trkpt>
      <trkpt lat="45.66951" lon="7.695405">
        <time>1970-01-01T00:00:00+00:00</time>
        <ele>475.0</ele>
      </trkpt>
      <trkpt lat="45.669552" lon="7.695325">
        <time>1970-01-01T00:00:00+00:00</time>
        <ele>474.0</ele>
      </trkpt>
      <trkpt lat="45.669576" lon="7.695125">
        <time>1970-01-01T00:00:00+00:00</time>
        <ele>468.0</ele>
      </trkpt>
      <trkpt lat="45.669608" lon="7.695031">
        <time>1970-01-01T00:00:00+00:00</time>
        <ele>466.0</ele>
      </trkpt>
      <trkpt lat="45.669704" lon="7.694968">
        <time>1970-01-01T00:00:00+00:00</time>
        <ele>463.0</ele>
      </trkpt>
      <trkpt lat="45.669725" lon="7.694972">
        <time>1970-01-01T00:00:00+00:00</time>
        <ele>462.0</ele>
      </trkpt>
      <trkpt lat="45.669725" lon="7.694972">
        <time>1970-01-01T00:00:00+00:00</time>
        <ele>462.0</ele>
      </trkpt>
      <trkpt lat="45.669704" lon="7.694968">
        <time>1970-01-01T00:00:00+00:00</time>
        <ele>463.0</ele>
      </trkpt>
      <trkpt lat="45.669608" lon="7.695031">
        <time>1970-01-01T00:00:00+00:00</time>
        <ele>466.0</ele>
      </trkpt>
      <trkpt lat="45.669576" lon="7.695125">
        <time>1970-01-01T00:00:00+00:00</time>
        <ele>468.0</ele>
      </trkpt>
      <trkpt lat="45.669552" lon="7.695325">
        <time>1970-01-01T00:00:00+00:00</time>
        <ele>474.0</ele>
      </trkpt>
      <trkpt lat="45.66951" lon="7.695405">
        <time>1970-01-01T00:00:00+00:00</time>
        <ele>475.0</ele>
      </trkpt>
      <trkpt lat="45.669451" lon="7.69547">
        <time>1970-01-01T00:00:00+00:00</time>
        <ele>474.0</ele>
      </trkpt>
      <trkpt lat="45.669406" lon="7.695774">
        <time>1970-01-01T00:00:00+00:00</time>
        <ele>478.0</ele>
      </trkpt>
      <trkpt lat="45.669401" lon="7.695935">
        <time>1970-01-01T00:00:00+00:00</time>
        <ele>477.0</ele>
      </trkpt>
      <trkpt lat="45.669362" lon="7.696052">
        <time>1970-01-01T00:00:00+00:00</time>
        <ele>475.0</ele>
      </trkpt>
      <trkpt lat="45.669381" lon="7.696131">
        <time>1970-01-01T00:00:00+00:00</time>
        <ele>476.0</ele>
      </trkpt>
      <trkpt lat="45.669381" lon="7.696203">
        <time>1970-01-01T00:00:00+00:00</time>
        <ele>475.0</ele>
      </trkpt>
      <trkpt lat="45.669342" lon="7.696316">
        <time>1970-01-01T00:00:00+00:00</time>
        <ele>473.0</ele>
      </trkpt>
      <trkpt lat="45.669283" lon="7.696416">
        <time>1970-01-01T00:00:00+00:00</time>
        <ele>469.0</ele>
      </trkpt>
      <trkpt lat="45.669196" lon="7.696472">
        <time>1970-01-01T00:00:00+00:00</time>
        <ele>467.0</ele>
      </trkpt>
      <trkpt lat="45.668994" lon="7.696705">
        <time>1970-01-01T00:00:00+00:00</time>
        <ele>465.0</ele>
      </trkpt>
      <trkpt lat="45.668939" lon="7.696786">
        <time>1970-01-01T00:00:00+00:00</time>
        <ele>465.0</ele>
      </trkpt>
      <trkpt lat="45.668862" lon="7.69684">
        <time>1970-01-01T00:00:00+00:00</time>
        <ele>466.0</ele>
      </trkpt>
      <trkpt lat="45.668681" lon="7.696849">
        <time>1970-01-01T00:00:00+00:00</time>
        <ele>468.0</ele>
      </trkpt>
      <trkpt lat="45.66822" lon="7.695855">
        <time>1970-01-01T00:00:00+00:00</time>
        <ele>454.0</ele>
      </trkpt>
    </trkseg>
  </trk>
</gpx>
